KD9BEW Weather Reports


time (UTC)temp
F
wind
direction
speed
knots
gust
knots
rain 1hr
in
rain 24hr
in
rain mn
in
humidity
%
barometer
mb
20260503213054 67 312 3.5 8.7 0.00 0.00 0.00 23 1002.6
20260503211554 67 284 2.6 9.6 0.00 0.00 0.00 23 1002.7
20260503210058 68 167 0.9 8.7 0.00 0.00 0.00 23 1002.6
20260503204606 67 22 3.5 8.7 0.00 0.00 0.00 22 1002.8
20260503203105 68 19 2.6 7.8 0.00 0.00 0.00 21 1002.9
20260503201556 68 263 2.6 8.7 0.00 0.00 0.00 22 1002.9
20260503200055 68 263 2.6 10.4 0.00 0.00 0.00 23 1003.0
20260503194614 68 299 2.6 10.4 0.00 0.00 0.00 23 1002.9
20260503193054 68 303 3.5 8.7 0.00 0.00 0.00 25 1003.0
20260503191600 67 263 3.5 10.4 0.00 0.00 0.00 29 1003.1
20260503190059 68 277 5.2 10.4 0.00 0.00 0.00 29 1003.2
20260503184555 68 331 1.7 12.2 0.00 0.00 0.00 29 1003.3
20260503183106 68 281 3.5 9.6 0.00 0.00 0.00 32 1003.5
20260503181554 68 293 4.3 9.6 0.00 0.00 0.00 33 1003.6
20260503180106 67 306 2.6 10.4 0.00 0.00 0.00 37 1003.5
20260503174553 67 257 2.6 10.4 0.00 0.00 0.00 40 1003.8
20260503173145 66 257 2.6 10.4 0.00 0.00 0.00 43 1003.8
20260503171554 66 277 2.6 11.3 0.00 0.00 0.00 41 1003.8
20260503130108 51 0 0.9 2.6 0.00 0.00 0.00 70 1004.9
20260503120104 50 0 0.0 0.9 0.00 0.00 0.00 72 1004.4
20260503100111 48 150 0.0 1.7 0.00 0.00 0.00 75 1004.4
20260503081558 53 0 0.9 2.6 0.00 0.00 0.00 67 1005.4
20260503071554 53 141 0.0 1.7 0.00 0.00 0.00 68 1006.4
20260503054555 55 176 0.0 2.6 0.00 0.00 0.00 58 1007.8
20260503053051 55 0 0.0 2.6 0.00 0.00 0.00 56 1007.8
20260503051555 55 183 0.0 1.7 0.00 0.00 0.00 56 1007.6
20260503050055 56 0 0.0 3.5 0.00 0.00 0.00 53 1007.6
20260503044555 56 171 0.9 3.5 0.00 0.00 0.00 51 1007.3
20260503043054 57 155 0.9 2.6 0.00 0.00 0.00 50 1007.4
20260503041553 57 152 0.9 2.6 0.00 0.00 0.00 50 1007.5
20260503040053 57 155 0.9 2.6 0.00 0.00 0.00 51 1007.5
20260503034552 58 200 0.9 6.1 0.00 0.00 0.00 49 1007.7
20260503033055 57 34 1.7 7.0 0.00 0.00 0.00 49 1008.0
20260503031608 56 167 1.7 7.8 0.00 0.00 0.00 46 1008.0
20260503030057 56 181 3.5 7.8 0.00 0.00 0.00 46 1008.1
20260503024554 56 151 1.7 6.1 0.00 0.00 0.00 45 1008.1
20260503023056 56 143 2.6 7.8 0.00 0.00 0.00 45 1008.3
20260503021555 56 0 0.9 2.6 0.00 0.00 0.00 45 1008.3
20260503020100 56 163 0.9 1.7 0.00 0.00 0.00 44 1008.4
20260503014559 57 142 0.0 3.5 0.00 0.00 0.00 43 1008.3
20260503013053 58 134 0.9 3.5 0.00 0.00 0.00 42 1008.5
20260503011606 58 156 0.0 3.5 0.00 0.00 0.00 41 1008.5
20260503010100 59 121 1.7 3.5 0.00 0.00 0.00 41 1008.6
20260503004601 59 209 0.9 5.2 0.00 0.00 0.00 40 1008.8
20260503003103 60 148 0.9 3.5 0.00 0.00 0.00 39 1008.9
20260503001555 60 164 1.7 7.0 0.00 0.00 0.00 39 1009.1
20260503000108 60 196 0.9 7.0 0.00 0.00 0.00 38 1009.3
20260502234554 60 294 1.7 6.1 0.00 0.00 0.00 39 1009.4
20260502233054 61 169 1.7 9.6 0.00 0.00 0.00 39 1009.6
20260502231617 60 0 3.5 9.6 0.00 0.00 0.00 37 1009.8
20260502230056 60 148 2.6 9.6 0.00 0.00 0.00 36 1009.8
20260502224559 61 133 1.7 5.2 0.00 0.00 0.00 35 1009.9
20260502223055 62 294 0.9 7.0 0.00 0.00 0.00 34 1010.0
20260502221554 62 149 0.9 6.1 0.00 0.00 0.00 31 1010.1
20260502220055 61 0 0.0 4.3 0.00 0.00 0.00 33 1010.4
20260502214556 61 142 1.7 7.8 0.00 0.00 0.00 33 1010.5